Weather History for Thedford, NE

Change the Weather History Date:

Thursday, October 13, 2011

  Actual Average (KLBF) Record (KLBF)
Temperature  
Mean Temperature 50 °F 50 °F  
Max Temperature 68 °F 66 °F 91 °F (1989)
Min Temperature 33 °F 35 °F 13 °F (1986)
Degree Days  
Heating Degree Days 14 15  
Month to date heating degree days 164  
Since 1 July heating degree days 335  
Cooling Degree Days 0 0  
Month to date cooling degree days 0  
Year to date cooling degree days 765  
Moisture  
Dew Point 31 °F    
Average Humidity 54    
Maximum Humidity 93    
Minimum Humidity 21    
Precipitation  
Precipitation 0.00 in 0.06 in 1.45 in (1880)
Month to date precipitation 0.69  
Year to date precipitation 18.32  
Snow  
Snow 0.00 in 0.00 in T in (2009)
Month to date snowfall 0.5  
Since 1 July snowfall 0.7  
Since 1 September snowfall 0.7  
Snow Depth -    
Sea Level Pressure  
Sea Level Pressure 29.96 in    
Wind  
Wind Speed 7 mph (NW)    
Max Wind Speed 15 mph    
Max Gust Speed 25 mph    
Visibility 10 miles    
Events      
T = Trace of Precipitation, MM = Missing Value Source: NWS Daily Summary

Daily Weather History Graph

Daily Weather History Graph

Search for Another Location

Airport:

Trip Planner

Search our weather history database for the weather conditions in past years. The results will help you decide how hot, cold, wet, or windy it might be!

Date:

Astronomy

Oct. 13, 2011 Rise Set
Actual Time 7:52 AM CDT 7:04 PM CDT
Civil Twilight 7:24 AM CDT 7:32 PM CDT
Nautical Twilight 6:51 AM CDT 8:04 PM CDT
Astronomical Twilight 6:19 AM CDT 8:36 PM CDT
Moon 7:38 PM CDT (10/13) 9:28 AM CDT (10/13)
Length of Visible Light 12h 08m
Length of Day
11h 12m
Full, 98% of the Moon is Illuminated
Oct 13
Full
Oct 19
Last Quarter
Oct 26
New
Nov 2
First Quarter
Nov 10
Full

Hourly Weather History & Observations

Time (CDT) Temp. Windchill Dew Point Humidity Pressure Visibility Wind Dir Wind Speed Gust Speed Precip Events Conditions
12:15 AM 42.8 °F 37.5 °F 33.8 °F 70% 29.99 in 10.0 mi West 9.2 mph - N/A   Clear
12:35 AM 42.8 °F 38.0 °F 33.8 °F 70% 30.00 in 10.0 mi WNW 8.1 mph - N/A   Clear
1:15 AM 41.0 °F 36.4 °F 33.8 °F 76% 29.99 in 10.0 mi WNW 6.9 mph - N/A   Clear
1:35 AM 39.2 °F 34.2 °F 32.0 °F 75% 29.99 in 10.0 mi WNW 6.9 mph - N/A   Clear
1:55 AM 37.4 °F 32.8 °F 32.0 °F 81% 29.99 in 10.0 mi WNW 5.8 mph - N/A   Clear
2:15 AM 39.2 °F 34.2 °F 32.0 °F 75% 29.99 in 10.0 mi WNW 6.9 mph - N/A   Clear
2:35 AM 37.4 °F 33.8 °F 32.0 °F 81% 29.99 in 10.0 mi WNW 4.6 mph - N/A   Clear
2:55 AM 37.4 °F 31.4 °F 32.0 °F 81% 29.99 in 10.0 mi West 8.1 mph - N/A   Clear
3:15 AM 37.4 °F 32.8 °F 32.0 °F 81% 29.99 in 10.0 mi WNW 5.8 mph - N/A   Clear
3:35 AM 37.4 °F 31.4 °F 32.0 °F 81% 29.99 in 10.0 mi WNW 8.1 mph - N/A   Clear
3:55 AM 35.6 °F 32.8 °F 32.0 °F 87% 29.98 in 10.0 mi WNW 3.5 mph - N/A   Clear
4:15 AM 35.6 °F 32.8 °F 32.0 °F 87% 29.98 in 10.0 mi WNW 3.5 mph - N/A   Clear
4:35 AM 37.4 °F 30.8 °F 32.0 °F 81% 29.98 in 10.0 mi West 9.2 mph - N/A   Clear
4:55 AM 37.4 °F 32.1 °F 32.0 °F 81% 29.98 in 10.0 mi West 6.9 mph - N/A   Clear
5:15 AM 37.4 °F - 32.0 °F 81% 29.98 in 10.0 mi Calm Calm - N/A   Clear
5:35 AM 37.4 °F - 32.0 °F 81% 29.98 in 10.0 mi Calm Calm - N/A   Clear
5:55 AM 37.4 °F 32.1 °F 32.0 °F 81% 29.98 in 10.0 mi WNW 6.9 mph - N/A   Clear
6:15 AM 37.4 °F - 32.0 °F 81% 29.99 in 10.0 mi Calm Calm - N/A   Clear
6:35 AM 35.6 °F - 32.0 °F 87% 29.99 in 10.0 mi Calm Calm - N/A   Clear
6:55 AM 37.4 °F - 32.0 °F 81% 29.98 in 10.0 mi Calm Calm - N/A   Clear
7:15 AM 35.6 °F - 32.0 °F 87% 29.98 in 10.0 mi Calm Calm - N/A   Clear
7:35 AM 35.6 °F - 32.0 °F 87% 29.98 in 10.0 mi Calm Calm - N/A   Clear
7:55 AM 33.8 °F - 32.0 °F 93% 29.98 in 10.0 mi Calm Calm - N/A   Clear
8:35 AM 35.6 °F - 32.0 °F 87% 29.98 in 10.0 mi Calm Calm - N/A   Clear
9:15 AM 41.0 °F - 33.8 °F 76% 29.98 in 10.0 mi Calm Calm - N/A   Clear
9:35 AM 44.6 °F 41.4 °F 33.8 °F 66% 29.99 in 10.0 mi WNW 5.8 mph - N/A   Clear
9:55 AM 48.2 °F - 33.8 °F 58% 29.98 in 10.0 mi WNW 5.8 mph - N/A   Clear
10:15 AM 51.8 °F - 33.8 °F 50% 29.98 in 10.0 mi Calm Calm - N/A   Clear
10:35 AM 57.2 °F - 32.0 °F 38% 29.98 in 10.0 mi West 11.5 mph - N/A   Clear
10:55 AM 59.0 °F - 32.0 °F 36% 29.98 in 10.0 mi West 10.4 mph - N/A   Clear
11:15 AM 60.8 °F - 32.0 °F 34% 29.98 in 10.0 mi WNW 6.9 mph - N/A   Clear
11:35 AM 62.6 °F - 30.2 °F 30% 29.98 in 10.0 mi WNW 10.4 mph 16.1 mph N/A   Clear
11:55 AM 62.6 °F - 28.4 °F 27% 29.96 in 10.0 mi WNW 10.4 mph 16.1 mph N/A   Clear
12:15 PM 64.4 °F - 28.4 °F 26% 29.96 in 10.0 mi NW 9.2 mph - N/A   Clear
12:35 PM 66.2 °F - 28.4 °F 24% 29.95 in 10.0 mi NW 8.1 mph - N/A   Clear
12:55 PM 64.4 °F - 26.6 °F 24% 29.94 in 10.0 mi West 11.5 mph - N/A   Clear
1:15 PM 66.2 °F - 26.6 °F 23% 29.94 in 10.0 mi WNW 12.7 mph 16.1 mph N/A   Clear
1:35 PM 68.0 °F - 28.4 °F 23% 29.93 in 10.0 mi WNW 9.2 mph 25.3 mph N/A   Clear
2:15 PM 68.0 °F - 26.6 °F 21% 29.91 in 10.0 mi West 5.8 mph - N/A   Clear
2:35 PM 68.0 °F - 26.6 °F 21% 29.90 in 10.0 mi WNW 13.8 mph 19.6 mph N/A   Clear
2:55 PM 66.2 °F - 30.2 °F 26% 29.90 in 10.0 mi North 11.5 mph 19.6 mph N/A   Clear
3:15 PM 68.0 °F - 30.2 °F 24% 29.90 in 10.0 mi NNW 11.5 mph 17.3 mph N/A   Clear
3:35 PM 68.0 °F - 30.2 °F 24% 29.89 in 10.0 mi North 11.5 mph 16.1 mph N/A   Clear
3:55 PM 68.0 °F - 30.2 °F 24% 29.89 in 10.0 mi NNW 12.7 mph 19.6 mph N/A   Clear
4:15 PM 66.2 °F - 30.2 °F 26% 29.90 in 10.0 mi NW 15.0 mph 20.7 mph N/A   Clear
4:35 PM 66.2 °F - 30.2 °F 26% 29.90 in 10.0 mi NW 12.7 mph 19.6 mph N/A   Clear
4:55 PM 64.4 °F - 30.2 °F 28% 29.90 in 10.0 mi North 10.4 mph - N/A   Clear
5:15 PM 64.4 °F - 30.2 °F 28% 29.91 in 10.0 mi NNW 15.0 mph 18.4 mph N/A   Clear
5:35 PM 62.6 °F - 30.2 °F 30% 29.91 in 10.0 mi North 12.7 mph 19.6 mph N/A   Clear
5:55 PM 62.6 °F - 30.2 °F 30% 29.91 in 10.0 mi North 13.8 mph 17.3 mph N/A   Clear
6:15 PM 60.8 °F - 30.2 °F 31% 29.92 in 10.0 mi North 11.5 mph - N/A   Clear
6:35 PM 59.0 °F - 30.2 °F 34% 29.92 in 10.0 mi North 9.2 mph - N/A   Clear
6:55 PM 57.2 °F - 30.2 °F 36% 29.92 in 10.0 mi North 5.8 mph - N/A   Clear
7:15 PM 55.4 °F - 30.2 °F 38% 29.92 in 10.0 mi North 3.5 mph - N/A   Clear
7:35 PM 53.6 °F - 32.0 °F 44% 29.92 in 10.0 mi North 5.8 mph - N/A   Clear
7:55 PM 51.8 °F - 32.0 °F 47% 29.93 in 10.0 mi Calm Calm - N/A   Clear
8:15 PM 50.0 °F - 32.0 °F 50% 29.93 in 10.0 mi Calm Calm - N/A   Clear
8:35 PM 50.0 °F - 32.0 °F 50% 29.94 in 10.0 mi North 3.5 mph - N/A   Clear
8:55 PM 48.2 °F - 32.0 °F 54% 29.95 in 10.0 mi North 4.6 mph - N/A   Clear
9:15 PM 46.4 °F 44.3 °F 32.0 °F 57% 29.96 in 10.0 mi NNW 4.6 mph - N/A   Clear
9:35 PM 46.4 °F 44.3 °F 32.0 °F 57% 29.96 in 10.0 mi North 4.6 mph - N/A   Clear
9:55 PM 46.4 °F - 32.0 °F 57% 29.96 in 10.0 mi Calm Calm - N/A   Clear
10:15 PM 46.4 °F 44.3 °F 32.0 °F 57% 29.97 in 10.0 mi NW 4.6 mph - N/A   Scattered Clouds
10:35 PM 44.6 °F - 32.0 °F 61% 29.98 in 10.0 mi Calm Calm - N/A   Clear
10:55 PM 46.4 °F - 32.0 °F 57% 29.98 in 10.0 mi Calm Calm - N/A   Scattered Clouds
11:15 PM 46.4 °F - 32.0 °F 57% 29.98 in 10.0 mi Calm Calm - N/A   Scattered Clouds
11:35 PM 46.4 °F - 32.0 °F 57% 29.99 in 10.0 mi Calm Calm - N/A   Mostly Cloudy
11:55 PM 44.6 °F - 32.0 °F 61% 30.00 in 10.0 mi Calm Calm - N/A   Scattered Clouds